Location: Coopersdale
(40.3556°N, 78.9372°W)
Time: 01:12:35
(UTC+00:00)

Transit 4A - Pass Details

Date: 21 January 2021
Orbit: 867 x 978 km, 66.8° (Epoch: 07 March)

Event Time Altitude Azimuth Distance (km) Brightness Sun altitude
Rises 08:59:26 0° 336° (NNW) 3,632 - -40.6°
Reaches altitude 10° 09:02:16 10° 345° (NNW) 2,667 - -40.0°
Maximum altitude 09:07:54 35° 50° (NE) 1,451 - -39.0°
Exits shadow 09:08:56 33° 71° (ENE) 1,502 9.3 -38.8°
Drops below altitude 10° 09:13:21 10° 116° (ESE) 2,583 10.8 -37.9°
Sets 09:16:02 0° 125° (SE) 3,503 11.5 -37.4°
